CW7536 Weather Reports


time (UTC)temp
C
wind
direction
speed
KPH
gust
KPH
rain 1hr
cm
rain 24hr
cm
rain mn
cm
humidity
%
barometer
mb
20260505194533 27 275 8.0 22.5 0.00 19.89 0.38 32 1007.2
20260505193031 27 248 4.8 16.1 0.00 19.89 0.38 32 1007.5
20260505191524 27 228 9.7 22.5 0.00 19.89 0.38 31 1007.7
20260505190024 27 16 8.0 22.5 0.00 19.89 0.38 33 1007.9
20260505184516 27 296 6.4 19.3 0.00 20.60 0.38 33 1008.1
20260505183011 27 269 4.8 20.9 0.00 20.60 0.38 35 1008.3
20260505181507 27 265 6.4 33.8 0.00 20.60 0.38 37 1008.3
20260505180002 27 238 1.6 12.9 0.00 22.20 0.38 38 1008.5
20260505174611 27 282 4.8 16.1 0.00 22.20 0.38 39 1008.5
20260505174527 27 304 6.4 16.1 0.00 22.20 0.38 39 1008.5
20260505173053 27 276 1.6 12.9 0.00 22.20 0.38 40 1008.8
20260505171551 27 154 4.8 14.5 0.00 22.20 0.38 40 1008.9
20260505170044 26 259 3.2 12.9 0.00 22.20 0.38 42 1009.1
20260505164542 26 277 3.2 12.9 0.00 2.72 0.38 41 1009.4
20260505163035 26 264 1.6 8.0 0.00 2.72 0.38 42 1009.6
20260505161530 26 234 1.6 11.3 0.00 2.72 0.38 44 1009.7
20260505153017 24 257 0.0 12.9 0.03 2.92 0.38 47 1010.3
20260505151513 23 268 3.2 8.0 0.05 2.92 0.38 47 1010.5
20260505124529 17 255 0.0 8.0 0.00 3.30 0.33 37 1010.9
20260505123031 16 264 3.2 8.0 0.00 3.30 0.33 28 1010.6
20260505121520 16 252 0.0 4.8 0.00 3.30 0.33 10 1010.8
20260505120022 15 154 0.0 4.8 0.00 3.30 0.33 1 1011.0
20260505114510 13 238 0.0 3.2 0.00 3.30 0.33 1 1010.9
20260505113005 13 124 0.0 1.6 0.00 3.30 0.33 1 1011.0
20260505111505 13 165 0.0 0.0 0.00 3.30 0.33 1 1011.0
20260505101601 11 266 0.0 0.0 0.00 3.30 0.33 1 1010.8
20260505100058 11 338 0.0 1.6 0.00 3.30 0.33 1 1010.5
20260505094536 11 338 0.0 0.0 0.00 3.30 0.33 1 1010.3
20260505093032 10 340 0.0 0.0 0.00 3.30 0.33 1 1010.2
20260505091528 10 236 0.0 0.0 0.00 3.30 0.33 1 1010.0
20260505090023 10 237 0.0 0.0 0.00 3.30 0.33 1 1010.1
20260505084519 10 237 0.0 0.0 0.00 3.30 0.33 1 1009.9
20260505083014 10 237 0.0 0.0 0.00 3.30 0.33 1 1009.9
20260505081511 10 237 0.0 1.6 0.00 3.30 0.33 1 1010.0
20260505080008 10 146 0.0 0.0 0.00 3.30 0.33 1 1010.0
20260505074504 10 146 0.0 0.0 0.00 3.30 0.33 1 1010.0
20260505073105 10 146 0.0 0.0 0.00 3.30 0.33 1 1010.0
20260505071557 11 143 0.0 1.6 0.00 3.30 0.33 1 1009.9
20260505070057 11 264 0.0 3.2 0.00 3.30 0.33 1 1009.9
20260505064546 11 264 0.0 0.0 0.00 3.30 0.33 1 1010.0
20260505063048 11 264 0.0 0.0 0.00 3.30 0.33 1 1010.1
20260505061540 11 264 0.0 0.0 0.00 3.30 0.33 6 1010.2
20260505060033 11 264 0.0 0.0 0.00 3.30 0.33 13 1010.2
20260505054530 12 264 0.0 0.0 0.00 3.30 0.33 23 1010.3
20260505053036 12 264 0.0 0.0 0.00 3.30 0.33 34 1010.3
20260505051536 12 264 0.0 0.0 0.00 3.30 0.33 43 1010.3
20260505041515 14 271 0.0 3.2 14.35 3.30 0.33 52 1010.6
20260505040010 14 262 0.0 1.6 14.02 3.28 3.28 53 1010.5
20260505034510 15 267 0.0 1.6 12.27 3.10 3.10 53 1010.5
20260505033009 15 271 0.0 1.6 6.27 25.04 25.04 53 1010.6
20260505031509 15 271 0.0 1.6 0.00 18.77 18.77 52 1010.6
20260505030008 15 265 0.0 6.4 0.00 18.77 18.77 52 1010.7
20260505024508 15 264 0.0 1.6 0.00 18.77 18.77 52 1010.8
20260505023012 15 236 0.0 1.6 0.00 18.77 18.77 52 1010.7
20260505021506 15 280 0.0 1.6 0.00 18.77 18.77 52 1010.8
20260505020005 15 281 0.0 1.6 0.00 18.77 18.77 50 1010.7
20260505014505 16 232 0.0 0.0 0.00 18.77 18.77 50 1010.6
20260505013104 16 208 0.0 0.0 0.00 18.77 18.77 49 1010.5
20260505011504 16 203 0.0 0.0 0.00 18.77 18.77 48 1010.4
20260505010010 17 273 0.0 1.6 0.00 18.77 18.77 46 1010.1
20260505004503 18 273 0.0 3.2 0.00 18.77 18.77 44 1009.9
20260505003008 18 288 0.0 1.6 0.00 18.77 18.77 43 1009.9
20260505001502 18 273 0.0 4.8 0.00 18.77 18.77 42 1009.6
20260505000001 19 281 0.0 6.4 0.00 18.77 18.77 41 1009.4
20260504234500 20 248 1.6 9.7 0.00 18.77 18.77 40 1009.2
20260504233100 20 267 1.6 6.4 0.00 18.77 18.77 39 1008.9
20260504231601 20 285 3.2 9.7 0.00 18.77 18.77 38 1008.8
20260504230059 20 193 1.6 9.7 0.00 18.77 18.77 38 1008.7
20260504224559 21 271 1.6 9.7 0.00 18.77 18.77 37 1008.6
20260504223102 21 245 1.6 8.0 0.00 18.77 18.77 36 1008.8
20260504221609 21 283 1.6 6.4 0.00 18.77 18.77 36 1008.8
20260504220056 21 274 1.6 17.7 0.00 18.77 18.77 35 1008.9
20260504214601 21 245 3.2 11.3 1.42 18.77 18.77 35 1009.0
20260504213104 21 324 3.2 16.1 1.63 18.77 18.77 36 1009.2
20260504211553 21 251 3.2 19.3 1.63 18.77 18.77 36 1009.2
20260504210052 21 225 3.2 8.0 3.07 18.77 18.77 35 1009.2
20260504204558 22 226 3.2 11.3 2.41 17.32 17.32 35 1009.3
20260504203053 22 297 3.2 9.7 3.86 17.14 17.14 35 1009.2
20260504201548 22 237 1.6 16.1 3.86 17.14 17.14 35 1009.3
20260504200046 22 250 1.6 16.1 2.08 15.37 15.37 35 1009.4